Change the Weather History Date:

Sunday, October 20, 2013

  Actual Average Record
Temperature  
Mean Temperature 48 °F 46 °F  
Max Temperature 57 °F 57 °F 78 °F (1965)
Min Temperature 39 °F 36 °F 22 °F (1930)
Degree Days  
Heating Degree Days 17 19  
Month to date heating degree days 201 317  
Since 1 July heating degree days 510 609  
Cooling Degree Days 0 0  
Month to date cooling degree days 0 0  
Year to date cooling degree days 433 289  
Moisture  
Dew Point 36 °F    
Average Humidity 61    
Maximum Humidity 86    
Minimum Humidity 36    
Precipitation  
Precipitation 0.00 in 0.16 in 1.51 in (1937)
Month to date precipitation 1.14 3.37  
Year to date precipitation 32.93 37.11  
Sea Level Pressure  
Sea Level Pressure 29.83 in    
Wind  
Wind Speed 8 mph (West)    
Max Wind Speed 22 mph    
Max Gust Speed 26 mph    
Visibility 10 miles    
Events      
T = Trace of Precipitation, MM = Missing Value Source: NWS Daily Summary

Daily Weather History Graph

Daily Weather History Graph

Search for Another Location

Airport or City:

Trip Planner

Search our weather history database for the weather conditions in past years. The results will help you decide how hot, cold, wet, or windy it might be!

Date:

Astronomy

Oct. 20, 2013 Rise Set
Actual Time 7:12 AM EDT 6:02 PM EDT
Civil Twilight 6:43 AM EDT 6:31 PM EDT
Nautical Twilight 6:10 AM EDT 7:04 PM EDT
Astronomical Twilight 5:38 AM EDT 7:36 PM EDT
Moon 7:07 PM EDT (10/20) 8:49 AM EDT (10/20)
Length of Visible Light 11h 47m
Length of Day
10h 50m
Full, 97% of the Moon is Illuminated
Oct 20
Full
Oct 26
Last Quarter
Nov 3
New
Nov 10
First Quarter
Nov 17
Full

Hourly Weather History & Observations

Time (EDT) Temp. Windchill Dew Point Humidity Pressure Visibility Wind Dir Wind Speed Gust Speed Precip Events Conditions
12:54 AM 51.1 °F - 46.9 °F 86% 29.66 in 10.0 mi SSW 9.2 mph - N/A   Overcast
1:43 AM 51.8 °F - 46.4 °F 82% 29.70 in 10.0 mi SW 8.1 mph - N/A   Mostly Cloudy
1:54 AM 51.1 °F - 46.9 °F 86% 29.66 in 10.0 mi SW 6.9 mph - N/A   Scattered Clouds
2:54 AM 50.0 °F - 46.9 °F 89% 29.68 in 9.0 mi WSW 8.1 mph - N/A   Overcast
3:54 AM 50.0 °F - 43.0 °F 77% 29.70 in 10.0 mi West 9.2 mph - N/A   Mostly Cloudy
4:09 AM 48.2 °F - 41.0 °F 76% 29.73 in 10.0 mi WNW 10.4 mph 18.4 mph N/A   Mostly Cloudy
4:54 AM 46.9 °F - 36.0 °F 66% 29.73 in 10.0 mi WNW 16.1 mph 25.3 mph N/A   Clear
5:54 AM 44.1 °F 38.6 °F 34.0 °F 68% 29.75 in 10.0 mi West 10.4 mph - N/A   Clear
6:54 AM 42.1 °F 37.7 °F 33.1 °F 70% 29.77 in 10.0 mi West 6.9 mph - N/A   Clear
7:54 AM 42.1 °F 37.1 °F 34.0 °F 73% 29.81 in 10.0 mi West 8.1 mph - N/A   Clear
8:54 AM 46.0 °F 41.4 °F 34.0 °F 63% 29.83 in 10.0 mi West 9.2 mph - N/A   Clear
9:54 AM 48.0 °F - 35.1 °F 61% 29.85 in 10.0 mi WNW 12.7 mph - N/A   Partly Cloudy
10:54 AM 50.0 °F - 34.0 °F 54% 29.85 in 10.0 mi West 11.5 mph - N/A   Partly Cloudy
11:54 AM 53.1 °F - 34.0 °F 48% 29.85 in 10.0 mi West 13.8 mph 23.0 mph N/A   Clear
12:54 PM 55.0 °F - 33.1 °F 43% 29.85 in 10.0 mi WNW 11.5 mph - N/A   Mostly Cloudy
1:54 PM 55.0 °F - 30.9 °F 40% 29.85 in 10.0 mi NW 13.8 mph 21.9 mph N/A   Mostly Cloudy
2:54 PM 57.0 °F - 30.9 °F 37% 29.85 in 10.0 mi WNW 16.1 mph 26.5 mph N/A   Mostly Cloudy
3:54 PM 54.0 °F - 30.9 °F 41% 29.87 in 10.0 mi NW 8.1 mph - N/A   Overcast
4:54 PM 52.0 °F - 30.0 °F 43% 29.89 in 10.0 mi West 9.2 mph - N/A   Partly Cloudy
5:54 PM 50.0 °F - 30.9 °F 48% 29.91 in 10.0 mi NW 4.6 mph - N/A   Partly Cloudy
6:54 PM 46.0 °F - 32.0 °F 58% 29.95 in 10.0 mi Calm Calm - N/A   Clear
7:54 PM 41.0 °F - 32.0 °F 70% 29.97 in 10.0 mi Calm Calm - N/A   Clear
8:54 PM 39.9 °F - 32.0 °F 73% 29.98 in 10.0 mi Calm Calm - N/A   Clear
9:54 PM 41.0 °F 38.0 °F 35.1 °F 79% 30.00 in 10.0 mi WSW 4.6 mph - N/A   Mostly Cloudy
10:54 PM 44.1 °F 42.5 °F 35.1 °F 71% 30.00 in 10.0 mi SW 3.5 mph - N/A   Overcast
11:54 PM 42.1 °F - 37.0 °F 82% 30.00 in 10.0 mi Calm Calm - N/A   Overcast